TIME,DELAY(SENSOR),PRES,OXYGEN,RAWTEMP,T(OPTODE),TCPHASE,FLUOR,BETA(BETA700),BETA(BETA412),BETA(BETA440),CDOM,C(CSC),ED(ED412.20),ED(ED444.00),ED(ED489.60),ED(ED554.30),LU(LU412.10),LU(LU443.90),LU(LU489.70),LU(LU554.70),COMP,TILTX,TILTY,CHECK
1335757740,5808,882.6699829101562000,41.2597198486328100,569.4664916992188000,4.1921391487121580,55.4238700866699200,54,101,102,79,85,15470,0,0,0,0,2147126482,2147775990,2147573257,2147570569,2210,2,13,4187
1335761336,5810,961.0700073242188000,45.6565513610839840,575.2896728515625000,4.0110611915588380,54.8557510375976560,54,100,101,78,84,15469,0,0,0,0,2147127945,2147776173,2147571574,2147569673,740,2,13,65160
1335764936,5811,971.2600097656250000,45.0600814819335940,575.4174194335938000,4.0070858001708980,54.9434204101562500,56,99,102,78,84,15469,0,0,0,0,2147126912,2147778660,2147571840,2147573275,3314,2,13,31926
1335768536,5808,974.2299804687500000,43.8688316345214840,576.3748168945312000,3.9772889614105225,55.1213798522949200,54,100,102,79,83,15468,0,0,0,0,2147126820,2147774390,2147576905,2147571739,3514,2,13,6776
1335772136,5810,984.9600219726562000,43.7749099731445300,577.2559814453125000,3.9498500823974610,55.1421813964843750,55,101,114,78,84,15468,0,0,0,0,2147123712,2147774208,2147570834,2147572964,128,2,13,32613
1335775736,5811,983.0200195312500000,44.0218582153320300,577.9556274414062000,3.9280660152435303,55.1170806884765600,56,99,102,78,84,15468,0,0,0,0,2147124809,2147775168,2147577197,2147570825,179,2,13,17412
1335779336,5809,985.8099975585938000,44.0888214111328100,577.0883178710938000,3.9550719261169434,55.0948905944824200,56,98,101,79,83,15467,0,0,0,0,2147124772,2147776173,2147576036,2147571520,370,2,13,17849
1335782936,5808,988.4799804687500000,42.7762298583984400,576.8214721679688000,3.9633789062500000,55.2846984863281250,55,98,102,79,85,15468,0,0,0,0,2147127259,2147775113,2147571090,2147571474,392,2,13,19390
1335786536,5809,986.7700195312500000,42.2566108703613300,577.1121215820312000,3.9543340206146240,55.3619918823242200,54,100,102,78,84,15466,0,0,0,0,2147124745,2147779904,2147575625,2147570724,452,2,13,14271
1335790136,5814,992.2399902343750000,44.7491493225097660,577.6713256835938000,3.9369180202484130,55.0139198303222660,55,97,101,79,83,15466,0,0,0,0,2147123483,2147777453,2147575277,2147574235,3509,2,13,23325
1335793736,5805,988.4400024414062000,43.5533905029296900,577.2783203125000000,3.9491579532623290,55.1769409179687500,55,99,102,79,83,15465,0,0,0,0,2147124242,2147775634,2147574948,2147569746,3566,2,13,12338
1335797336,5809,995.5599975585938000,43.9840583801269500,577.3698120117188000,3.9463078975677490,55.1140213012695300,55,98,101,79,82,15464,0,0,0,0,2147128384,2147776137,2147570432,2147574299,163,2,13,54805
1335800936,5808,992.4699707031250000,43.5807685852050800,577.8035888671875000,3.9327979087829590,55.1780281066894500,55,98,102,77,84,15458,0,0,0,0,2147126107,2147779547,2147573028,2147570313,237,2,13,62982
1335804536,5812,990.5900268554688000,43.7941093444824200,577.9655761718750000,3.9277551174163820,55.1488304138183600,55,98,107,79,82,15459,0,0,0,0,2147126317,2147780800,2147580242,2147569974,323,2,13,46113
1335808136,5810,985.1799926757812000,43.9765510559082000,577.6973266601562000,3.9361100196838380,55.1191902160644500,55,99,101,78,85,15459,0,0,0,0,2147127085,2147776557,2147573458,2147570587,14,2,13,43436
1335811736,5810,980.6400146484375000,45.3788490295410160,579.0233764648438000,3.8948040008544920,54.9401016235351560,54,101,102,77,83,15461,0,0,0,0,2147125933,2147777764,2147573686,2147572818,3155,2,13,34241
1335815336,5809,985.1599731445312000,47.9079704284668000,579.3690795898438000,3.8840351104736330,54.5871505737304700,55,102,103,78,82,15456,0,0,0,0,2147127826,2147778368,2147578194,2147574665,163,2,13,4266
1335818936,5812,993.0300292968750000,47.2123489379882800,578.9163818359375000,3.8981380462646484,54.6777000427246100,54,99,102,92,84,15460,0,0,0,0,2147125284,2147775122,2147575680,2147571840,66,2,13,43901
1335822536,5809,994.3099975585938000,45.9927291870117200,578.1649780273438000,3.9215428829193115,54.8429107666015600,55,101,100,78,83,15455,0,0,0,0,2147128475,2147782802,2147576448,2147572114,351,2,13,15660
1335826136,5809,1002.4600219726562000,45.4935989379882800,578.0726928710938000,3.9244189262390137,54.9099311828613300,54,100,102,78,83,15460,0,0,0,0,2147123008,2147780918,2147576164,2147571666,127,2,13,25579
1335829736,5809,1004.4899902343750000,43.7603111267089840,577.1279907226562000,3.9538381099700928,55.1399917602539060,54,99,102,78,84,15451,0,0,0,0,2147132800,2147780269,2147574893,2147569234,3437,2,13,49691
1335833336,5809,997.2600097656250000,41.9319114685058600,577.0477294921875000,3.9563369750976562,55.4042892456054700,54,100,100,79,84,15446,0,0,0,0,2147126985,2147773686,2147573878,2147572141,142,2,13,53169
1335836936,5807,1000.0200195312500000,43.6945495605468750,577.4213256835938000,3.9447040557861330,55.1580886840820300,55,98,103,79,84,15449,0,0,0,0,2147125686,2147778569,2147573513,2147571273,3581,2,13,15523
1335840536,5810,1005.0999755859375000,42.4999694824218750,576.8533935546875000,3.9623870849609375,55.3209915161132800,55,98,101,77,83,15446,0,0,0,0,2147126656,2147773933,2147576164,2147571638,185,2,13,21364
1335844136,5809,1003.5900268554688000,43.3471412658691400,577.5521240234375000,3.9406321048736572,55.2045516967773440,55,100,103,81,84,15446,0,0,0,0,2147127469,2147778258,2147573970,2147571520,123,2,13,6123
1335847736,5809,1000.6799926757812000,42.3542289733886700,577.2322998046875000,3.9505898952484130,55.3479194641113300,55,98,103,78,85,15443,0,0,0,0,2147126692,2147775085,2147573376,2147571264,3534,2,13,45343
1335851336,5809,1000.2700195312500000,41.5756683349609400,577.4495849609375000,3.9438230991363525,55.4650306701660160,55,100,101,78,83,15440,0,0,0,0,2147126857,2147773641,2147578934,2147569545,175,2,13,3868
1335854936,5809,994.7899780273438000,42.9852905273437500,577.9998779296875000,3.9266850948333740,55.2615890502929700,55,99,102,79,84,15445,0,0,0,0,2147125494,2147775158,2147574125,2147572397,113,2,13,42513
1335858536,5811,989.4699707031250000,46.0345611572265600,578.8723144531250000,3.8995149135589600,54.8464584350585940,55,99,101,79,83,15441,0,0,0,0,2147128393,2147770230,2147576292,2147572178,410,2,13,29332
1335862136,5808,989.6599731445312000,48.2384910583496100,579.9575195312500000,3.8657019138336180,54.5488014221191400,56,102,101,79,84,15439,0,0,0,0,2147127588,2147778688,2147576548,2147568804,3215,2,13,9814
1335865736,5811,995.8400268554688000,47.9198188781738300,580.2976074218750000,3.8551039695739746,54.5962181091308600,55,101,102,80,84,15440,0,0,0,0,2147124160,2147782518,2147574784,2147569033,128,2,13,63238
1335869336,5811,995.1500244140625000,48.7299003601074200,580.3153076171875000,3.8545510768890380,54.4831581115722660,55,100,102,78,84,15440,0,0,0,0,2147125869,2147777837,2147573979,2147571684,3489,2,13,61138
1335872936,5809,1000.0599975585938000,48.3479690551757800,580.2606811523438000,3.8562529087066650,54.5363883972168000,55,101,101,80,85,15439,0,0,0,0,2147123638,2147778185,2147572973,2147570194,3555,2,13,29811
1335876536,5813,999.4899902343750000,49.2023086547851560,580.2625732421875000,3.8561940193176270,54.4225807189941400,55,100,101,78,84,15436,0,0,0,0,2147122541,2147774345,2147575990,2147571044,3031,2,13,29669
1335880136,5809,994.6199951171875000,48.2100296020507800,580.6649169921875000,3.8436570167541504,54.5618591308593750,55,98,102,78,83,15438,0,0,0,0,2147124891,2147775186,2147576521,2147569353,169,2,13,39123
1335883736,5754,993.4799804687500000,48.2788391113281250,580.6450805664062000,3.8442749977111816,54.5551490783691400,54,100,102,78,83,15436,0,0,0,0,2147127296,2147773677,2147574400,2147571035,3276,2,13,24080
1335887336,5809,1000.3099975585938000,48.8055801391601560,580.2238769531250000,3.8573989868164062,54.4774093627929700,55,100,102,78,84,15434,0,0,0,0,2147125641,2147777572,2147578230,2147570148,3400,2,13,3047
1335890936,5812,998.3400268554688000,48.7100410461425800,580.0609741210938000,3.8624780178070070,54.4875907897949200,55,98,102,78,83,15435,0,0,0,0,2147124022,2147780361,2147576530,2147567734,3537,2,13,3404
1335894536,5809,1001.4600219726562000,46.3678398132324200,579.4962158203125000,3.8800749778747560,54.8066596984863300,55,104,102,81,84,15438,0,0,0,0,2147125293,2147778550,2147575104,2147573961,82,2,13,13145
1335898136,5809,1004.4000244140625000,46.4570503234863300,578.8629150390625000,3.8998069763183594,54.7861099243164060,55,99,101,78,82,15428,0,0,0,0,2147123218,2147777088,2147573942,2147568347,269,2,13,62867
1335901736,5810,1007.5800170898438000,45.6535911560058600,578.0952758789062000,3.9237139225006104,54.8905906677246100,55,99,101,78,83,15431,0,0,0,0,2147126445,2147775552,2147571766,2147569462,134,2,13,1552
1335901856,5810,1007.1500244140625000,45.7478599548339840,578.0087890625000000,3.9264090061187744,54.8758201599121100,56,99,102,79,84,15430,0,0,0,0,2147124918,2147776557,2147573293,2147567268,8,2,13,60472
